sat.trackr.live / text

‹ back to catalog

STARLINK-37393

NORAD 68776 · 2026-086L

PAYLOAD ACTIVE UNKNOWN

§ Identity

Operator
Country
US
Launch date
2026-04-19
Launch site
AFWTR
Launch vehicle
Mass (kg)
RCS (m²)

Purposes: comms

External: N2YO · Heavens-Above · Gunter

§ Orbital elements

Epoch: 2026-05-25T02:19:19.702848Z

Period
91.43 min
Inclination
97.2859°
Eccentricity
0.0001118
Mean motion
15.74932277 rev/d
Perigee alt
344.1 km
Apogee alt
345.6 km
Semi-major
6,723.0 km
B*
-2.1826e-3
RAAN
181.9698°
Arg perigee
48.7785°
Mean anomaly
311.3577°
Rev number
552

§ Raw data

STARLINK-373931 68776U 26086L   26145.09675582 -.00310636  00000+0 -21826-2 0  99972 68776  97.2859 181.9698 0001118  48.7785 311.3577 15.74932277  5524

JSON: /api/v1/satellites/68776 · /tle

For live sub-satellite position, see the globe view (requires WebGL).

§ Visibility from observer

Set your observer location to see the next 7 days of passes ≥ 10°. The values pass through the URL so the page stays shareable.

No JS? Fill the form by hand. The geolocation button needs JavaScript.